Location: Dünsbach
(49.2124°N, 9.8846°E)
Time: 06:25:21
(UTC+00:00)

Daily predictions for brighter satellites

Satellite Brightness Start Highest point End
(mag) Time Altitude Azimuth Time Altitude Azimuth Time Altitude Azimuth
Cosmos 1933 Rocket 4.4 20:08:10 10° NNW 20:12:28 51° W 20:16:46 10° S
Meteor 1-4 Rocket 4.3 20:13:20 10° ESE 20:14:38 12° E 20:15:56 10° ENE
Ariane Rocket 3.2 20:11:33 10° SSE 20:16:32 59° ENE 20:21:33 10° N
RESURS DK-1 2.4 20:12:27 10° NNW 20:16:32 77° WSW 20:20:35 10° SSE
Meteor 2-10 Rocket 3.7 20:11:51 10° N 20:17:27 70° ENE 20:22:46 10° SSE
CZ-4C R/B 3.6 20:14:14 10° NNE 20:18:23 80° WNW 20:22:30 10° SSW
BREEZE-M DEB (TANK) 4.5 20:15:52 10° W 20:19:52 89° N 20:37:59 10° E
BREEZE-M DEB (TANK) 3.1 20:09:59 10° WSW 20:20:06 82° NNW 20:23:05 10° ENE
Cosmos 1758 3.4 20:17:54 10° N 20:21:48 59° ENE 20:25:40 10° SSE
Cosmos 2322 Rocket 2.3 20:16:32 10° NNW 20:22:15 89° NE 20:27:57 10° SSE
Cosmos 1300 2.7 20:20:19 10° N 20:23:50 57° ENE 20:27:20 10° SSE
EXPRESS MD2 2.0 20:21:11 10° WSW 20:24:09 81° SSE 20:26:22 10° E
MOS 1 Rocket 3.7 20:19:31 10° SSE 20:24:51 69° ENE 20:30:05 10° N
Cosmos 1862 Rocket 4.3 20:21:51 10° SSE 20:25:52 37° E 20:29:57 10° NNE
Meteor 1-22 Rocket 4.5 20:24:09 10° NNW 20:29:49 75° W 20:35:41 10° S
SL-4 R/B 2.5 20:26:48 10° WNW 20:30:34 59° N 20:34:37 10° E
Cosmos 1850 Rocket 4.0 20:26:51 10° S 20:32:00 64° ESE 20:37:10 10° NNE
Resurs 01 Rocket 4.3 20:30:17 10° SW 20:32:49 15° W 20:35:22 10° NW
Cosmos 2315 Rocket 4.1 20:27:53 10° N 20:34:18 80° E 20:40:41 10° SSE
Meteor 1-12 Rocket 4.5 20:28:48 10° NNW 20:34:51 87° W 20:40:52 10° S
SJ 16-02 2.0 20:34:31 10° SSE 20:38:26 35° ESE 20:42:24 10° NE
SPOT 5 3.8 20:34:38 10° SSW 20:38:41 39° W 20:42:51 10° NNW
SeaSat 1 2.7 20:34:58 10° SSE 20:39:51 67° WSW 20:44:47 10° NW
Cosmos 968 Rocket 3.6 20:36:14 10° S 20:41:13 54° ESE 20:46:17 10° NNE
Cosmos 2219 Rocket 2.5 20:39:53 10° NNW 20:45:32 61° ENE 20:50:39 13° SE
Cosmos 1707 Rocket 3.6 20:41:40 10° S 20:46:05 70° E 20:50:30 10° NNE
Cosmos 1400 Rocket 3.4 20:44:07 10° SSW 20:47:56 56° WNW 20:51:43 10° N
COSMOS 2428 3.8 20:45:55 10° NNW 20:51:11 37° NE 20:56:27 10° ESE
ATLAS CENTAUR R/B 0.9 20:47:59 10° SW 20:51:29 88° SE 20:55:07 10° NE
SPOT 3 Rocket 3.7 20:46:50 10° SSE 20:51:58 78° WSW 20:57:11 10° NNW
Cosmos 1741 Rocket 4.0 20:47:51 10° SSW 20:53:08 89° ESE 20:58:29 10° NNE
Cosmos 1814 Rocket 4.1 20:49:45 10° NNW 20:55:05 82° ENE 20:59:41 14° SSE
Meteor 1-21 4.3 20:49:52 10° S 20:55:38 75° E 21:01:28 10° NNE
USA 234 3.2 20:50:26 10° ENE 20:56:59 69° SE 21:03:28 10° SW
Landsat 4 4.1 20:58:07 11° S 21:01:17 51° W 21:04:39 10° NNW
Cosmos 1356 Rocket 3.6 20:57:16 10° SSW 21:01:27 76° W 21:05:41 10° N
Cosmos 1733 Rocket 3.4 20:59:46 10° NNW 21:04:09 66° W 21:08:17 11° S
Cosmos 1953 2.7 21:01:13 10° N 21:04:55 46° ENE 21:07:31 18° SE
Okean 1-7 3.4 21:01:50 15° SSE 21:05:11 46° E 21:09:20 10° NNE
Okean 2 3.8 21:02:36 16° SSE 21:05:30 43° E 21:09:20 10° NNE
BlueWalker 3 2.9 21:03:55 10° SSW 21:07:01 25° SE 21:10:07 10° E
Terra 2.8 21:03:01 10° S 21:07:28 41° W 21:11:57 10° NNW
Cosmos 1315 Rocket 3.1 21:06:12 16° SSE 21:09:10 48° E 21:13:03 10° NNE
ARIANE 5 R/B 3.7 21:07:44 14° SE 21:10:52 32° ENE 21:14:45 10° N
Cosmos 2360 Rocket 2.8 21:05:43 10° NW 21:11:12 52° WSW 21:16:01 13° S
Meteor 2-20 Rocket 4.5 21:07:31 10° N 21:13:51 81° E 21:18:52 15° SSE
ERS-1 Rocket 4.4 21:10:02 10° SSW 21:14:33 33° W 21:19:07 10° NNW
Cosmos 1241 Rocket 4.4 21:09:33 10° SSW 21:15:39 65° ESE 21:21:51 10° NE
Cosmos 1455 2.2 21:15:19 10° N 21:18:48 58° ENE 21:20:53 22° SSE
Cosmos 1908 Rocket 3.7 21:15:28 10° N 21:19:47 62° ENE 21:22:42 20° SSE
SL-27 R/B 3.5 21:17:40 10° SW 21:20:14 35° WNW 21:22:52 10° N
Cosmos 1782 Rocket 4.4 21:18:42 10° N 21:22:44 36° ENE 21:25:25 18° SE
GP-B 3.7 21:19:22 10° NNE 21:23:34 41° E 21:26:14 20° SSE
SL-16 R/B 4.1 21:19:52 10° NW 21:24:05 22° W 21:28:17 10° SSW
Nadezhda 1 Rocket 4.4 21:19:42 10° N 21:25:52 53° ENE 21:30:24 18° SSE
BREEZE-M DEB (TANK) 4.1 21:22:26 10° WSW 21:26:57 85° SSE 21:46:33 10° E
Aureole 3 4.0 21:25:43 10° SSW 21:29:45 65° WNW 21:34:52 10° N
Cosmos 2333 Rocket 3.1 21:25:20 10° NW 21:30:41 41° WSW 21:35:13 14° S
GENESIS II 4.3 21:29:18 18° S 21:31:43 44° ESE 21:35:12 10° NE
Cosmos 1346 Rocket 4.4 21:29:21 10° NW 21:32:39 27° W 21:35:54 10° SSW
Cosmos 1300 Rocket 4.2 21:34:13 10° N 21:38:20 43° ENE 21:40:48 21° SE
COSMOS 2455 3.6 21:38:31 20° SSE 21:41:53 34° ESE 21:47:14 10° NE
Landsat 5 4.0 21:39:08 10° N 21:43:04 55° WNW 21:47:08 10° SSW
ATLAS 2AS CENTAUR R/B 3.5 21:37:10 10° NW 21:43:21 39° WSW 21:47:58 17° S
Meteor 1-4 Rocket 3.5 21:44:36 12° SW 21:47:06 34° WNW 21:49:55 10° N
Cosmos 2237 Rocket 3.2 21:42:11 10° NNW 21:47:32 40° NE 21:52:14 13° ESE
USA 281 3.3 21:43:40 19° SE 21:48:39 81° ENE 21:55:16 10° NNW
Cosmos 1242 Rocket 1.7 21:47:47 36° S 21:48:47 85° E 21:51:32 10° NNE
Cosmos 2322 3.7 21:46:59 10° NNW 21:52:41 77° WSW 21:56:21 23° SSE
Cosmos 2227 Rocket 4.0 21:53:22 13° ESE 21:55:12 15° E 21:58:11 10° ENE
NOSS 0 Rocket 4.1 21:50:29 10° NNW 21:56:44 72° ENE 22:01:14 20° SE
ALOS 2 3.7 21:57:54 19° ESE 22:00:30 36° ENE 22:04:31 10° N
H-2A R/B 2.9 21:58:24 24° SE 22:00:44 56° ENE 22:04:55 10° N
Cosmos 1980 4.3 21:55:31 10° NNW 22:01:03 51° NE 22:05:18 17° SE
Cosmos 1703 Rocket 3.8 21:59:28 19° SSW 22:02:40 71° WNW 22:07:08 10° N
Cosmos 2322 Rocket 4.3 22:02:05 10° WNW 22:05:30 16° W 22:08:53 10° SW
SL-4 R/B 1.9 22:05:32 10° WNW 22:09:30 80° SSW 22:12:22 20° ESE
Cosmos 2297 Rocket 2.9 22:11:53 24° SSE 22:14:28 37° ESE 22:19:38 10° NE
SJ 16-02 3.2 22:13:05 10° WSW 22:16:50 28° WNW 22:20:37 10° N
Cosmos 1709 Rocket 4.1 22:14:43 23° S 22:18:49 69° E 22:25:08 10° NNE
Cosmos 158 Rocket 4.2 22:18:22 10° NNW 22:23:37 62° WSW 22:26:23 27° S
BREEZE-M DEB (TANK) 3.7 22:21:56 10° W 22:25:05 86° N 22:34:44 10° E
Cosmos 2242 Rocket 3.6 22:23:28 29° S 22:25:47 78° E 22:30:21 10° NNE
MINOTAUR 4 R/B 3.9 22:25:10 10° N 22:28:03 59° WNW 22:28:58 37° SW
Cosmos 1408 2.1 22:27:18 45° SSW 22:28:04 73° W 22:31:04 10° N
Cosmos 2219 Rocket 3.7 22:24:29 10° NW 22:29:04 26° WSW 22:32:21 15° SSW
ATLAS CENTAUR R/B 4.1 22:27:15 10° WNW 22:29:40 17° NNW 22:32:08 10° NNE
CZ-4C R/B 1.9 22:28:54 27° SSW 22:31:17 58° SE 22:36:48 10° NE
EXPRESS MD2 2.6 22:29:20 10° W 22:30:57 43° W 22:30:57 43° W
COSMOS 2428 3.3 22:30:09 10° NW 22:35:33 46° WSW 22:38:32 25° SSW
CZ-2C R/B 4.5 22:34:00 10° N 22:38:14 46° WNW 22:41:28 16° SW
CENTAUR R/B 3.5 22:37:03 22° SE 22:38:59 26° ESE 22:44:19 10° ENE
USA 234 3.9 22:33:32 10° ENE 22:39:56 58° NNW 22:46:19 10° W
BREEZE-M DEB (TANK) 3.3 22:27:44 10° W 22:40:00 89° N 22:43:29 10° E
Meteor 2-5 Rocket 3.8 22:40:27 27° S 22:43:50 73° E 22:49:39 10° NNE
Cosmos 405 Rocket 2.7 22:40:59 10° N 22:44:44 69° ENE 22:46:03 38° SSE
BlueWalker 3 1.9 22:41:08 10° WSW 22:44:53 81° NNW 22:48:38 10° ENE
Cosmos 2263 Rocket 4.1 22:43:42 12° ESE 22:45:41 14° E 22:48:28 10° ENE
ARIANE 5 R/B 3.9 22:45:12 20° SW 22:47:16 30° W 22:51:07 10° NNW
Cosmos 773 Rocket 4.0 22:45:10 10° NNW 22:50:17 67° WSW 22:52:47 30° S
Cosmos 1174 4.1 22:45:47 10° NW 22:50:54 81° NE 22:52:58 29° SE
Okean 1 Rocket 4.0 22:49:09 10° N 22:53:15 39° ENE 22:55:26 23° SE
Cosmos 371 Rocket 3.4 22:53:41 24° SSW 22:56:35 74° WNW 23:01:26 10° NNE
Cosmos 2084 Rocket 3.6 22:57:00 37° S 22:58:19 52° SE 23:02:22 10° NE
PSLV R/B 3.6 23:02:08 10° NNE 23:06:20 65° E 23:07:53 36° S
Cosmos 1892 2.8 23:05:53 42° SE 23:06:42 54° E 23:10:08 10° NNE
Cosmos 1777 Rocket 4.0 23:05:53 28° SSW 23:08:47 86° ESE 23:14:06 10° NNE
H-2A R/B 2.5 23:05:28 10° NNE 23:09:34 45° E 23:10:59 32° SSE
Cosmos 1503 Rocket 4.1 23:07:09 24° SSW 23:10:23 79° WNW 23:15:43 10° NNE
Cosmos 1263 4.4 23:08:24 10° N 23:11:57 70° E 23:12:40 48° SE
Cosmos 1703 4.1 23:12:38 25° SW 23:14:11 39° WNW 23:17:40 10° N
Cosmos 2181 Rocket 4.1 23:17:20 10° NNW 23:23:27 66° W 23:26:52 27° SSW
NOSS 8 (A) 4.2 23:22:54 10° NW 23:25:52 72° SW 23:26:36 50° SSE
SL-16 R/B 2.5 23:20:11 10° NNW 23:25:53 66° ENE 23:30:12 18° SE
COSMOS 2455 3.5 23:21:41 10° SW 23:27:35 55° NW 23:33:33 10° NNE
Cosmos 1825 1.8 23:26:52 50° S 23:27:41 89° E 23:31:08 10° N
Cosmos 1328 4.1 23:26:46 37° SSE 23:28:00 54° E 23:31:48 10° NNE
Cosmos 1455 Rocket 4.1 23:24:32 10° N 23:28:46 40° ENE 23:31:18 21° SE
Cosmos 2151 Rocket 3.9 23:25:02 10° NNW 23:29:20 55° W 23:31:01 33° SSW
NOSS 3-2 (A) 4.0 23:27:47 27° SSE 23:29:41 34° ESE 23:35:02 10° NE
GEOS 3 Rocket 4.2 23:24:56 10° NE 23:29:45 38° ESE 23:31:36 29° SSE
BREEZE-M DEB (TANK) 3.3 23:29:09 18° WSW 23:31:11 80° SSE 23:37:48 10° E
Cosmos 2237 Rocket 2.8 23:26:20 10° NW 23:31:37 41° WSW 23:34:01 27° SSW
Cosmos 2074 Rocket 4.0 23:30:40 28° S 23:34:13 87° E 23:40:29 10° N
Okean 2 Rocket 3.5 23:31:14 10° NNW 23:35:36 53° W 23:37:23 32° SSW
H-2A R/B 4.5 23:34:22 15° WSW 23:35:58 18° W 23:38:52 10° NW
ALOS 2 3.9 23:35:18 22° SW 23:36:54 28° W 23:40:40 10° NW
Cosmos 1674 Rocket 3.7 23:35:17 32° SSW 23:37:11 65° WNW 23:41:31 10° N
Cosmos 1378 Rocket 4.0 23:35:17 29° SW 23:37:16 55° WNW 23:41:37 10° N
Cosmos 2227 Rocket 2.1 23:35:09 27° SSW 23:38:21 84° ESE 23:44:03 10° NNE
Cosmos 1025 Rocket 3.3 23:37:38 33° SSE 23:39:22 58° E 23:43:37 10° NNE
SL-4 R/B 3.5 23:44:37 10° W 23:47:03 22° WSW 23:47:03 22° WSW
Cosmos 1898 Rocket 4.3 23:47:23 24° SSE 23:49:46 38° ESE 23:54:32 10° NE
Cosmos 332 Rocket 4.1 23:48:04 25° SW 23:50:48 65° WNW 23:55:42 10° NNE
